User: anonymous   Login
Location: Unspecified
(0.0000°N, 0.0000°E)
Time: 11:28:19
(UTC+01:00)
Language:

Atlas Centaur 2 - Orbit

View from above orbital plane
View from above orbital plane
View from above satellite
View from above satellite

Ground track
Ground track

The orbit data is extracted from the following two-line orbital elements,

1 00694U 63047A   14304.43917973  .00001741  00000-0  22105-3 0  6313
2 00694 030.3584 039.4513 0596164 353.8891 047.6076 14.00024566547999
Epoch (UTC): 31 October 2014 10:32:25
Eccentricity: 0.0596164
inclination: 30.3584°
perigee height: 460 km
apogee height: 1327 km
right ascension of ascending node: 39.4513°
argument of perigee: 353.8891°
revolutions per day: 14.00024566
mean anomaly at epoch: 47.6076°
orbit number at epoch: 54799

The dashed part of the orbit path shows where the satellite is in the earth's shadow,  

DLR